User: anonymous   Login
Location: Daybis Observatory
(33.4273°N, 88.8061°W)
Time: 03:24:20
(UTC-05:00)
Language:

Coronas F rocket - Orbit

View from above orbital plane
View from above orbital plane
View from above satellite
View from above satellite

Ground track
Ground track

The orbit data is extracted from the following two-line orbital elements,

1 26874U 01032B   16272.12413635  .00046621  00000-0  18271-3 0  9997
2 26874  82.4607 168.7009 0007014 143.1116 217.0638 15.86734797851936
Epoch (UTC): 28 September 2016 02:58:45
Eccentricity: 0.0007014
inclination: 82.4607°
perigee height: 307 km
apogee height: 316 km
right ascension of ascending node: 168.7009°
argument of perigee: 143.1116°
revolutions per day: 15.86734797
mean anomaly at epoch: 217.0638°
orbit number at epoch: 85193

The dashed part of the orbit path shows where the satellite is in the earth's shadow,  

DLR